Time,TemperatureF,DewpointF,PressureIn,WindDirection,WindDirectionDegrees,WindSpeedMPH,WindSpeedGustMPH,Humidity,HourlyPrecipIn,Conditions,Clouds,dailyrainin,SolarRadiationWatts/m^2,SoftwareType,DateUTC
2013-06-20 00:02:00,79.0,73.0,-100.00,SSE,158,2.0,-999.0,82,0.00,,,-99.99,0.000000,,2013-06-20 04:02:00,
2013-06-20 00:11:00,78.0,73.0,-100.00,SSW,213,2.0,-999.0,85,0.00,,,-99.99,0.000000,,2013-06-20 04:11:00,
2013-06-20 00:23:00,78.0,73.0,-100.00,WSW,245,3.0,-999.0,84,0.00,,,-99.99,0.000000,,2013-06-20 04:23:00,
2013-06-20 00:34:00,78.0,73.0,-100.00,WSW,245,3.0,-999.0,84,0.00,,,-99.99,0.000000,,2013-06-20 04:34:00,
2013-06-20 00:43:00,77.0,73.0,-100.00,WNW,285,1.0,-999.0,85,0.00,,,-99.99,0.000000,,2013-06-20 04:43:00,
2013-06-20 00:54:00,77.0,73.0,-100.00,WNW,285,1.0,-999.0,85,0.00,,,-99.99,0.000000,,2013-06-20 04:54:00,
2013-06-20 01:02:00,77.0,73.0,-100.00,WNW,285,1.0,-999.0,85,0.00,,,-99.99,0.000000,,2013-06-20 05:02:00,
2013-06-20 01:12:00,76.0,73.0,-100.00,SSW,198,1.0,-999.0,87,0.00,,,-99.99,0.000000,,2013-06-20 05:12:00,
2013-06-20 01:22:00,76.0,72.0,-100.00,WSW,241,2.0,-999.0,89,0.00,,,-99.99,0.000000,,2013-06-20 05:22:00,
2013-06-20 01:33:00,76.0,72.0,-100.00,WSW,241,2.0,-999.0,89,0.00,,,-99.99,0.000000,,2013-06-20 05:33:00,
2013-06-20 01:44:00,75.0,72.0,-100.00,WSW,247,1.0,-999.0,91,0.00,,,-99.99,0.000000,,2013-06-20 05:44:00,
2013-06-20 01:53:00,75.0,73.0,-100.00,SSE,149,2.0,-999.0,91,0.00,,,-99.99,0.000000,,2013-06-20 05:53:00,
2013-06-20 02:02:00,75.0,73.0,-100.00,SSE,149,2.0,-999.0,91,0.00,,,-99.99,0.000000,,2013-06-20 06:02:00,
2013-06-20 02:11:00,75.0,73.0,-100.00,SSE,151,2.0,-999.0,92,0.00,,,-99.99,0.000000,,2013-06-20 06:11:00,
2013-06-20 02:22:00,75.0,73.0,-100.00,SSE,166,2.0,-999.0,93,0.00,,,-99.99,0.000000,,2013-06-20 06:22:00,
2013-06-20 02:33:00,75.0,73.0,-100.00,SSE,166,2.0,-999.0,93,0.00,,,-99.99,0.000000,,2013-06-20 06:33:00,
2013-06-20 02:43:00,74.0,72.0,-100.00,SSW,200,2.0,-999.0,93,0.00,,,-99.99,0.000000,,2013-06-20 06:43:00,
2013-06-20 02:53:00,75.0,73.0,-100.00,SE,126,1.0,-999.0,94,0.00,,,-99.99,0.000000,,2013-06-20 06:53:00,
2013-06-20 03:01:00,75.0,73.0,-100.00,SE,126,1.0,-999.0,94,0.00,,,-99.99,0.000000,,2013-06-20 07:01:00,
2013-06-20 03:12:00,74.0,73.0,-100.00,ESE,111,2.0,-999.0,95,0.00,,,-99.99,0.000000,,2013-06-20 07:12:00,
2013-06-20 03:22:00,74.0,72.0,-100.00,South,179,2.0,-999.0,95,0.00,,,-99.99,0.000000,,2013-06-20 07:22:00,
2013-06-20 03:34:00,74.0,72.0,-100.00,South,179,2.0,-999.0,95,0.00,,,-99.99,0.000000,,2013-06-20 07:34:00,
2013-06-20 03:44:00,74.0,73.0,-100.00,South,172,3.0,-999.0,96,0.00,,,-99.99,0.000000,,2013-06-20 07:44:00,
2013-06-20 03:53:00,74.0,73.0,-100.00,SSE,153,3.0,-999.0,96,0.00,,,-99.99,0.000000,,2013-06-20 07:53:00,
2013-06-20 04:02:00,74.0,73.0,-100.00,SSE,153,3.0,-999.0,96,0.00,,,-99.99,0.000000,,2013-06-20 08:02:00,
2013-06-20 04:11:00,75.0,74.0,-100.00,SSE,152,3.0,-999.0,96,0.00,,,-99.99,0.000000,,2013-06-20 08:11:00,
2013-06-20 04:22:00,74.0,73.0,-100.00,South,183,1.0,-999.0,97,0.00,,,-99.99,0.000000,,2013-06-20 08:22:00,
2013-06-20 04:34:00,74.0,73.0,-100.00,South,183,1.0,-999.0,97,0.00,,,-99.99,0.000000,,2013-06-20 08:34:00,
2013-06-20 04:43:00,73.0,73.0,-100.00,SW,221,3.0,-999.0,97,0.00,,,-99.99,0.000000,,2013-06-20 08:43:00,
2013-06-20 04:53:00,73.0,73.0,-100.00,SW,221,3.0,-999.0,97,0.00,,,-99.99,0.000000,,2013-06-20 08:53:00,
2013-06-20 05:02:00,73.0,73.0,-100.00,SW,221,3.0,-999.0,97,0.00,,,-99.99,0.000000,,2013-06-20 09:02:00,
2013-06-20 05:12:00,74.0,74.0,-100.00,SW,217,4.0,-999.0,98,0.00,,,-99.99,0.000000,,2013-06-20 09:12:00,
2013-06-20 05:22:00,74.0,74.0,-100.00,SSW,211,3.0,-999.0,97,0.00,,,-99.99,0.000000,,2013-06-20 09:22:00,
2013-06-20 05:33:00,74.0,74.0,-100.00,SSW,211,3.0,-999.0,97,0.00,,,-99.99,0.000000,,2013-06-20 09:33:00,
2013-06-20 05:42:00,73.0,72.0,-100.00,East,100,2.0,-999.0,97,0.00,,,-99.99,0.000000,,2013-06-20 09:42:00,
2013-06-20 05:52:00,73.0,72.0,-100.00,East,100,2.0,-999.0,97,0.00,,,-99.99,0.000000,,2013-06-20 09:52:00,
2013-06-20 06:01:00,73.0,72.0,-100.00,East,100,2.0,-999.0,97,0.00,,,-99.99,0.000000,,2013-06-20 10:01:00,
2013-06-20 06:11:00,73.0,73.0,-100.00,ESE,110,1.0,-999.0,98,0.00,,,-99.99,0.000000,,2013-06-20 10:11:00,
2013-06-20 06:22:00,73.0,72.0,-100.00,North,8,1.0,-999.0,98,0.00,,,-99.99,0.000000,,2013-06-20 10:22:00,
2013-06-20 06:34:00,72.0,72.0,-100.00,NW,311,1.0,-999.0,98,0.00,,,-99.99,0.100000,,2013-06-20 10:34:00,
2013-06-20 06:43:00,72.0,72.0,-100.00,NW,311,1.0,-999.0,98,0.00,,,-99.99,0.100000,,2013-06-20 10:43:00,
2013-06-20 06:53:00,72.0,72.0,-100.00,SE,135,2.0,-999.0,98,0.00,,,-99.99,0.900000,,2013-06-20 10:53:00,
2013-06-20 07:02:00,72.0,72.0,-100.00,SE,135,2.0,-999.0,98,0.00,,,-99.99,0.900000,,2013-06-20 11:02:00,
2013-06-20 07:12:00,72.0,72.0,-100.00,SE,135,2.0,-999.0,98,0.00,,,-99.99,0.900000,,2013-06-20 11:12:00,
2013-06-20 07:22:00,72.0,72.0,-100.00,ESE,108,1.0,-999.0,99,0.00,,,-99.99,25.299999,,2013-06-20 11:22:00,
2013-06-20 07:34:00,72.0,72.0,-100.00,ESE,108,1.0,-999.0,99,0.00,,,-99.99,25.299999,,2013-06-20 11:34:00,
2013-06-20 07:43:00,73.0,73.0,-100.00,ESE,109,1.0,-999.0,98,0.00,,,-99.99,57.900002,,2013-06-20 11:43:00,
2013-06-20 07:53:00,75.0,75.0,-100.00,ESE,121,2.0,-999.0,98,0.00,,,-99.99,52.400002,,2013-06-20 11:53:00,
2013-06-20 08:02:00,75.0,75.0,-100.00,ESE,121,2.0,-999.0,98,0.00,,,-99.99,52.400002,,2013-06-20 12:02:00,
2013-06-20 08:12:00,76.0,75.0,-100.00,South,180,2.0,-999.0,97,0.00,,,-99.99,54.000000,,2013-06-20 12:12:00,
2013-06-20 08:22:00,77.0,76.0,-100.00,South,184,3.0,-999.0,96,0.00,,,-99.99,183.300003,,2013-06-20 12:22:00,
2013-06-20 08:34:00,77.0,76.0,-100.00,South,184,3.0,-999.0,96,0.00,,,-99.99,183.300003,,2013-06-20 12:34:00,
2013-06-20 08:43:00,79.0,77.0,-100.00,SSW,192,3.0,-999.0,92,0.00,,,-99.99,184.199997,,2013-06-20 12:43:00,
2013-06-20 08:53:00,79.0,77.0,-100.00,SSW,192,3.0,-999.0,92,0.00,,,-99.99,184.199997,,2013-06-20 12:53:00,
2013-06-20 09:02:00,79.0,77.0,-100.00,SSW,192,3.0,-999.0,92,0.00,,,-99.99,184.199997,,2013-06-20 13:02:00,
2013-06-20 09:11:00,80.0,77.0,-100.00,SSW,206,3.0,-999.0,89,0.00,,,-99.99,317.700012,,2013-06-20 13:11:00,
2013-06-20 09:22:00,81.0,77.0,-100.00,SW,225,3.0,-999.0,86,0.00,,,-99.99,283.000000,,2013-06-20 13:22:00,
2013-06-20 09:33:00,81.0,77.0,-100.00,SW,225,3.0,-999.0,86,0.00,,,-99.99,283.000000,,2013-06-20 13:33:00,
2013-06-20 09:42:00,82.0,77.0,-100.00,SSW,213,3.0,-999.0,82,0.00,,,-99.99,379.799988,,2013-06-20 13:42:00,
2013-06-20 09:53:00,83.0,76.0,-100.00,SW,234,2.0,-999.0,79,0.00,,,-99.99,476.100006,,2013-06-20 13:53:00,
2013-06-20 10:02:00,83.0,76.0,-100.00,SW,234,2.0,-999.0,79,0.00,,,-99.99,476.100006,,2013-06-20 14:02:00,
2013-06-20 10:11:00,83.0,76.0,-100.00,SW,234,2.0,-999.0,79,0.00,,,-99.99,476.100006,,2013-06-20 14:11:00,
2013-06-20 10:22:00,85.0,75.0,-100.00,WNW,285,4.0,-999.0,72,0.00,,,-99.99,567.099976,,2013-06-20 14:22:00,
2013-06-20 10:32:00,85.0,75.0,-100.00,WNW,285,4.0,-999.0,72,0.00,,,-99.99,567.099976,,2013-06-20 14:32:00,
2013-06-20 10:42:00,86.0,74.0,-100.00,West,268,5.0,-999.0,68,0.00,,,-99.99,660.000000,,2013-06-20 14:42:00,
2013-06-20 10:53:00,86.0,74.0,-100.00,West,268,5.0,-999.0,68,0.00,,,-99.99,660.000000,,2013-06-20 14:53:00,
2013-06-20 11:02:00,86.0,74.0,-100.00,West,268,5.0,-999.0,68,0.00,,,-99.99,660.000000,,2013-06-20 15:02:00,
2013-06-20 11:11:00,86.0,73.0,-100.00,WSW,250,4.0,-999.0,64,0.00,,,-99.99,702.000000,,2013-06-20 15:11:00,
2013-06-20 11:22:00,87.0,72.0,-100.00,WNW,289,4.0,-999.0,60,0.00,,,-99.99,732.000000,,2013-06-20 15:22:00,
2013-06-20 11:33:00,87.0,72.0,-100.00,WNW,289,4.0,-999.0,60,0.00,,,-99.99,732.000000,,2013-06-20 15:33:00,
2013-06-20 11:43:00,88.0,70.0,-100.00,WNW,291,4.0,-999.0,56,0.00,,,-99.99,702.000000,,2013-06-20 15:43:00,
2013-06-20 11:53:00,88.0,69.0,-100.00,West,277,5.0,-999.0,53,0.00,,,-99.99,829.000000,,2013-06-20 15:53:00,
2013-06-20 12:01:00,88.0,69.0,-100.00,West,277,5.0,-999.0,53,0.00,,,-99.99,829.000000,,2013-06-20 16:01:00,
2013-06-20 12:12:00,88.0,71.0,-100.00,WSW,253,4.0,-999.0,56,0.00,,,-99.99,844.000000,,2013-06-20 16:12:00,
2013-06-20 12:22:00,89.0,70.0,-100.00,WNW,285,4.0,-999.0,54,0.00,,,-99.99,863.000000,,2013-06-20 16:22:00,
2013-06-20 12:33:00,89.0,70.0,-100.00,WNW,285,4.0,-999.0,54,0.00,,,-99.99,863.000000,,2013-06-20 16:33:00,
2013-06-20 12:43:00,89.0,70.0,-100.00,West,269,4.0,-999.0,52,0.00,,,-99.99,878.000000,,2013-06-20 16:43:00,
2013-06-20 12:52:00,89.0,69.0,-100.00,WSW,254,5.0,-999.0,51,0.00,,,-99.99,887.000000,,2013-06-20 16:52:00,
2013-06-20 13:02:00,89.0,69.0,-100.00,WSW,254,5.0,-999.0,51,0.00,,,-99.99,887.000000,,2013-06-20 17:02:00,
2013-06-20 13:12:00,90.0,69.0,-100.00,West,261,4.0,-999.0,50,0.00,,,-99.99,898.000000,,2013-06-20 17:12:00,
2013-06-20 13:22:00,90.0,69.0,-100.00,WSW,250,5.0,-999.0,50,0.00,,,-99.99,908.000000,,2013-06-20 17:22:00,
2013-06-20 13:32:00,90.0,69.0,-100.00,WSW,250,5.0,-999.0,50,0.00,,,-99.99,908.000000,,2013-06-20 17:32:00,
2013-06-20 13:43:00,91.0,69.0,-100.00,West,277,4.0,-999.0,49,0.00,,,-99.99,914.000000,,2013-06-20 17:43:00,
2013-06-20 13:53:00,92.0,70.0,-100.00,WSW,243,4.0,-999.0,49,0.00,,,-99.99,917.000000,,2013-06-20 17:53:00,
2013-06-20 14:01:00,91.0,71.0,-100.00,WNW,286,5.0,-999.0,50,0.00,,,-99.99,924.000000,,2013-06-20 18:01:00,
2013-06-20 14:11:00,91.0,71.0,-100.00,WNW,286,5.0,-999.0,50,0.00,,,-99.99,924.000000,,2013-06-20 18:11:00,
2013-06-20 14:22:00,92.0,70.0,-100.00,West,269,6.0,-999.0,49,0.00,,,-99.99,906.000000,,2013-06-20 18:22:00,
2013-06-20 14:33:00,92.0,70.0,-100.00,West,269,6.0,-999.0,49,0.00,,,-99.99,906.000000,,2013-06-20 18:33:00,
2013-06-20 14:43:00,92.0,70.0,-100.00,WSW,253,6.0,-999.0,49,0.00,,,-99.99,904.000000,,2013-06-20 18:43:00,
2013-06-20 14:53:00,92.0,69.0,-100.00,SW,233,5.0,-999.0,47,0.00,,,-99.99,891.000000,,2013-06-20 18:53:00,
2013-06-20 15:01:00,92.0,69.0,-100.00,SW,233,5.0,-999.0,47,0.00,,,-99.99,891.000000,,2013-06-20 19:01:00,
2013-06-20 15:11:00,93.0,70.0,-100.00,WNW,294,4.0,-999.0,48,0.00,,,-99.99,884.000000,,2013-06-20 19:11:00,
2013-06-20 15:22:00,92.0,70.0,-100.00,West,275,4.0,-999.0,48,0.00,,,-99.99,872.000000,,2013-06-20 19:22:00,
2013-06-20 15:34:00,92.0,70.0,-100.00,West,275,4.0,-999.0,48,0.00,,,-99.99,872.000000,,2013-06-20 19:34:00,
2013-06-20 15:43:00,94.0,70.0,-100.00,West,279,4.0,-999.0,46,0.00,,,-99.99,840.000000,,2013-06-20 19:43:00,
2013-06-20 15:52:00,94.0,70.0,-100.00,West,279,4.0,-999.0,46,0.00,,,-99.99,840.000000,,2013-06-20 19:52:00,
2013-06-20 16:02:00,94.0,70.0,-100.00,West,279,4.0,-999.0,46,0.00,,,-99.99,840.000000,,2013-06-20 20:02:00,
2013-06-20 16:11:00,93.0,70.0,-100.00,West,270,3.0,-999.0,47,0.00,,,-99.99,825.000000,,2013-06-20 20:11:00,
2013-06-20 16:33:00,92.0,71.0,-100.00,NNW,343,8.0,-999.0,51,0.00,,,-99.99,431.799988,,2013-06-20 20:33:00,
2013-06-20 16:42:00,88.0,72.0,-100.00,North,5,9.0,-999.0,58,0.00,,,-99.99,549.200012,,2013-06-20 20:42:00,
2013-06-20 16:52:00,89.0,72.0,-100.00,NNE,15,10.0,-999.0,57,0.00,,,-99.99,389.399994,,2013-06-20 20:52:00,